Regional Weather Roundup
Issued by NWS

Home | Current Version | Previous Version | Graphics & Text | Print | Product List | Glossary On
Versions: 1 2 3 4 5 6 7 8 9 10 11 12 13 14 15 16 17 18 19 20 21 22 23 24 25 26 27 28 29 30 31 32 33 34 35 36 37 38 39 40 41 42 43 44 45 46 47 48 49 50
699
ASUS43 KIND 311109
RWRIN

WEATHER ROUNDUP FOR INDIANA
NATIONAL WEATHER SERVICE INDIANAPOLIS IN
700 AM EDT TUE MAY 31 2016

NOTE: "FAIR" INDICATES FEW OR NO CLOUDS BELOW 12,000 FEET WITH NO
SIGNIFICANT WEATHER AND/OR OBSTRUCTIONS TO VISIBILITY.

* - STATION DOES NOT REPORT WEATHER SUCH AS PRECIPITATION OR FOG.

+ - STATION NOT QUALITY CONTROLLED BY THE NATIONAL WEATHER SERVICE.
    USE DATA WITH CAUTION...ESPECIALLY DEWPOINT AND RELATIVE
    HUMIDITY OBSERVATIONS.

INZ001>003-010>013-019-020-311200-
NORTHWEST INDIANA

CITY           SKY/WX    TMP DP  RH WIND       PRES   REMARKS
GARY /AIRPORT/ MOCLDY    66  64  94 E5        30.00R
KNOX *+        PTCLDY    59  52  77 CALM      30.00S
LA PORTE +     MOCLDY    66  60  81 E3        30.02R
MICHIGAN CITY+ CLOUDY    61  61 100 CALM      30.01S
MONTICELLO +   PTCLDY    65  52  62 E3        29.99R
RENSSELAER +   PTCLDY    66  55  68 E8        29.99S
VALPARAISO     CLOUDY    63  58  83 NE5       30.01R

$$

LMZ046-743>745-311200-
SOUTHERN LAKE MICHIGAN

STATION/POSITION TIME  TEMP    WIND        PRES    WAVE
                       AIR SEA DIR/SP/G            HT
                 (UTC) (F)     (DEG/KT/KT) (MB)    (FT)
BURNS HARBOR     1002   64      70/  6/  9 1015.9R
MICHIGAN CITY    1000   66      70/  4/  4   N/A
5NW MICH CITY    1100   63 61   80/  4/  6   N/A     0

$$

INZ004-005-014>016-021>024-311200-
NORTH CENTRAL INDIANA

CITY           SKY/WX    TMP DP  RH WIND       PRES   REMARKS
ELKHART        CLEAR     59  57  94 CALM      30.02
GOSHEN         PTCLDY    60  55  83 CALM      30.02R
LOGANSPORT +   PTCLDY    63  55  77 CALM      30.01R
PERU/GRISSOM   MOCLDY    63  56  78 CALM      29.99R
ROCHESTER +    CLOUDY    63  59  88 CALM      30.02R
SOUTH BEND     PTCLDY    62  56  80 CALM      30.03R
WARSAW +       CLOUDY    59  55  88 E3        30.02R

$$

INZ006>009-017-018-025>027-311200-
NORTHEAST INDIANA

CITY           SKY/WX    TMP DP  RH WIND       PRES   REMARKS
ANGOLA *+        N/A     63  52  67 CALM      30.02S
AUBURN +       PTCLDY    61  54  77 E3        30.03R
FORT WAYNE     CLOUDY    63  54  72 N5        30.02R
HUNTINGTON +   PTCLDY   N/A N/A N/A CALM      30.01R

$$

INZ028-029-035-036-043>045-051>053-311200-
WEST CENTRAL INDIANA

CITY           SKY/WX    TMP DP  RH WIND       PRES   REMARKS
CRAWFORDSVL +  CLEAR     58  58 100 CALM      29.99S
GREENCASTLE +  MOCLDY    61  61 100 CALM      30.01R
LAFAYETTE      PTCLDY    61  58  90 CALM      29.98R
TERRE HAUTE    CLEAR     61  59  93 CALM      29.99R

$$

INZ030>032-037>040-046>048-054>057-064-065-311200-
CENTRAL INDIANA

CITY           SKY/WX    TMP DP  RH WIND       PRES   REMARKS
CP ATTERBURY + PTCLDY    59  57  94 CALM      30.01R
COLUMBUS       PTCLDY    64  64 100 CALM      30.00
FISHERS *+     CLEAR     59  59 100 CALM      30.00R
FRANKFORT +      N/A     61  51  68 CALM      30.01S
GREENWOOD *+   CLOUDY    63  61  94 CALM      30.00S
INDIANAPOLIS   CLOUDY    66  59  78 CALM      29.98R
-EAGLE CREEK   MOCLDY    66  59  78 CALM      29.99R
KOKOMO *+      PTCLDY    63  52  67 E5        30.00R
MARION +       PTCLDY    63  54  72 CALM      30.01R HAZE
SHELBYVILLE    PTCLDY    65  59  81 CALM      29.99R
ZIONSVILLE +   MOCLDY    60  57  91 CALM      30.01R

$$

INZ033-034-041-042-049-050-058-059-311200-
EAST CENTRAL INDIANA

CITY           SKY/WX    TMP DP  RH WIND       PRES   REMARKS
MUNCIE         CLOUDY    65  56  72 CALM      30.01R

$$

INZ060-061-067>069-081>083-085>088-311200-
SOUTHWEST INDIANA

CITY           SKY/WX    TMP DP  RH WIND       PRES   REMARKS
EVANSVILLE     CLOUDY    64  60  87 CALM      29.98S
HUNTINGBURG *+ CLOUDY    63  59  88 CALM      29.99R
WASHINGTON +   PTCLDY    63  63 100 CALM      29.98S

$$

INZ062-063-066-070>080-084-089>092-311200-
SOUTH CENTRAL AND SOUTHEAST INDIANA

CITY           SKY/WX    TMP DP  RH WIND       PRES   REMARKS
BEDFORD +      PTCLDY    61  61 100 CALM      29.99R
BLOOMINGTON    CLOUDY    64  58  80 CALM      29.99S
MADISON *+     CLOUDY    61  59  94 CALM      30.02S
NORTH VERNON + PTCLDY   N/A N/A N/A CALM      30.01R
SEYMOUR +      PTCLDY    64  63  94 CALM      30.00R

$$





USA.gov is the U.S. government's official web portal to all federal, state and local government web resources and services.